Location: Alafon
(8.4500°N, 4.2333°E)
Time: 01:09:34
(UTC+00:00)

deb Explorer IX - Pass Details

Date: 28 July 2021
Orbit: 545 x 1092 km, 38.8° (Epoch: 16 September)

Event Time Altitude Azimuth Distance (km) Brightness Sun altitude
Rises 19:03:20 0° 336° (NNW) 3,759 ? -14.4°
Reaches altitude 10° 19:07:36 10° 0° (N) 2,879 ? -15.4°
Maximum altitude 19:11:05 14° 30° (NNE) 2,621 ? -16.2°
Drops below altitude 10° 19:14:37 10° 60° (ENE) 2,930 ? -17.0°
Enters shadow 19:15:11 - 64° (ENE) 3,027 ? -17.1°
Sets 19:18:59 0° 83° (E) 3,873 - -18.0°
